Date String (YYYY-MM-DD hh:mm:ss) UTC,Instrument flags,Ambient pressure (hPa),Sample flow (lpm),Bypass flow (lpm),Sample temperature (°C),Ambient temperature (°C),ASC tube jacket temperature (°C),LED temperature (°C),Box temperature (°C),Sample RH (%),Span deviation,Mass concentration (μg/m³),Mass concentration (μg/m³),Mass concentration (μg/m³)
DateTimeUTC,F1_M11,P_M11,Q1_M11,Q2_M11,T1_M11,T2_M11,T3_M11,T4_M11,T5_M11,U1_M11,ZSPAN_M11,X0_M11,X2_M11,X1_M11
2022-05-29 07:00:00,,0812.6,5.00,0.00,28.8,26.9,00.0,38.3,30.4,13.2,0000.0,0012.65,0003.63,0001.81
2022-05-29 07:01:00,,0812.5,5.00,0.00,28.9,27.0,00.0,38.3,30.5,13.3,0000.0,0012.67,0003.70,0001.83
2022-05-29 07:02:00,,0812.6,5.00,0.00,28.9,27.2,00.0,38.2,30.5,13.4,0000.0,0013.12,0003.71,0001.83
2022-05-29 07:03:00,,0812.6,5.01,0.00,28.9,27.3,00.0,38.2,30.6,13.4,0000.0,0013.80,0003.75,0001.83
2022-05-29 07:04:00,,0812.7,5.00,0.00,28.9,27.4,00.0,38.2,30.6,13.3,0000.0,0013.28,0003.76,0001.84
2022-05-29 07:05:00,,0812.6,5.01,0.00,28.9,27.5,00.0,38.1,30.7,13.3,0000.0,0013.16,0003.77,0001.85
2022-05-29 07:06:00,,0812.6,5.00,0.00,28.9,27.6,00.0,38.1,30.7,13.2,0000.0,0013.22,0003.79,0001.87
2022-05-29 07:07:00,,0812.5,4.99,0.00,28.9,27.6,00.0,38.1,30.7,13.1,0000.0,0014.11,0003.90,0001.88
2022-05-29 07:08:00,,0812.5,4.99,0.00,28.9,27.7,00.0,38.1,30.7,13.2,0000.0,0016.04,0003.93,0001.89
2022-05-29 07:09:00,,0812.6,5.00,0.00,29.0,27.7,00.0,38.1,30.7,13.3,0000.0,0015.83,0003.96,0001.91
2022-05-29 07:10:00,,0812.6,4.99,0.00,29.0,27.8,00.0,38.1,30.8,13.2,0000.0,0015.93,0003.96,0001.94
2022-05-29 07:11:00,,0812.6,4.99,0.00,29.0,27.8,00.0,38.1,30.8,13.2,0000.0,0016.34,0003.97,0001.97
2022-05-29 07:12:00,,0812.6,5.00,0.00,29.0,27.9,00.0,38.0,30.8,13.1,0000.0,0016.22,0003.94,0001.99
2022-05-29 07:13:00,,0812.6,5.01,0.00,29.0,27.9,00.0,38.0,30.8,13.0,0000.0,0016.58,0004.00,0002.02
2022-05-29 07:14:00,,0812.6,5.00,0.00,29.0,27.9,00.0,38.0,30.8,12.9,0000.0,0015.32,0004.03,0002.02
2022-05-29 07:15:00,,0812.6,5.00,0.00,29.0,28.0,00.0,38.0,30.8,12.9,0000.0,0014.97,0004.04,0002.02
2022-05-29 07:16:00,,0812.5,5.00,0.00,29.0,28.0,00.0,38.0,30.8,12.9,0000.0,0014.97,0004.07,0002.04
2022-05-29 07:17:00,,0812.6,5.00,0.00,29.1,28.0,00.0,38.0,30.9,12.8,0000.0,0015.83,0004.13,0002.06
2022-05-29 07:18:00,,0812.6,4.99,0.00,29.1,28.0,00.0,38.0,30.9,12.8,0000.0,0015.24,0004.04,0002.06
2022-05-29 07:19:00,,0812.6,5.00,0.00,29.1,28.1,00.0,38.0,30.9,12.7,0000.0,0013.14,0004.04,0002.07
2022-05-29 07:20:00,,0812.5,4.99,0.00,29.1,28.1,00.0,38.1,30.9,12.8,0000.0,0012.72,0004.01,0002.09
2022-05-29 07:21:00,,0812.5,4.99,0.00,29.1,28.1,00.0,38.1,31.0,12.7,0000.0,0012.76,0004.07,0002.07
2022-05-29 07:22:00,,0812.5,5.00,0.00,29.1,28.1,00.0,38.1,31.0,12.7,0000.0,0012.73,0004.10,0002.07
2022-05-29 07:23:00,,0812.5,4.99,0.00,29.1,28.1,00.0,38.1,31.0,12.6,0000.0,0013.32,0004.11,0002.08
2022-05-29 07:24:00,,0812.7,5.00,0.00,29.2,28.1,00.0,38.1,31.0,12.7,0000.0,0012.95,0004.10,0002.08
2022-05-29 07:25:00,,0812.6,5.00,0.00,29.2,28.1,00.0,38.1,31.0,12.7,0000.0,0013.08,0004.10,0002.10
2022-05-29 07:26:00,,0812.4,5.00,0.00,29.1,28.1,00.0,38.1,30.9,12.7,0000.0,0013.21,0004.10,0002.12
2022-05-29 07:27:00,,0812.5,4.99,0.00,29.1,28.1,00.0,38.1,31.0,12.7,0000.0,0013.33,0004.11,0002.14
2022-05-29 07:28:00,,0812.4,5.01,0.00,29.1,28.1,00.0,38.1,31.0,12.7,0000.0,0013.37,0004.07,0002.14
2022-05-29 07:29:00,,0812.4,5.00,0.00,29.2,28.1,00.0,38.1,31.0,12.9,0000.0,0014.41,0004.11,0002.15
2022-05-29 07:30:00,,0812.5,5.00,0.00,29.1,28.1,00.0,38.1,31.0,12.9,0000.0,0014.53,0004.08,0002.15
2022-05-29 07:31:00,,0812.4,5.00,0.00,29.1,28.1,00.0,38.1,31.0,12.8,0000.0,0014.80,0004.09,0002.15
2022-05-29 07:32:00,,0812.4,4.99,0.00,29.1,28.1,00.0,38.1,30.9,12.8,0000.0,0014.84,0004.03,0002.15
2022-05-29 07:33:00,,0812.4,5.00,0.00,29.1,28.1,00.0,38.1,30.9,12.8,0000.0,0014.42,0003.98,0002.14
2022-05-29 07:34:00,,0812.4,5.00,0.00,29.1,28.0,00.0,38.1,30.9,12.8,0000.0,0014.01,0004.00,0002.13
2022-05-29 07:35:00,,0812.4,5.00,0.00,29.1,28.0,00.0,38.1,30.9,12.7,0000.0,0013.97,0004.01,0002.13
2022-05-29 07:36:00,,0812.3,5.00,0.00,29.1,28.0,00.0,38.1,30.9,12.4,0000.0,0013.64,0003.99,0002.14
2022-05-29 07:37:00,,0812.4,5.00,0.00,29.1,28.1,00.0,38.1,30.9,12.2,0000.0,0013.53,0004.02,0002.14
2022-05-29 07:38:00,,0812.4,5.00,0.00,29.1,28.1,00.0,38.1,31.0,12.2,0000.0,0013.77,0004.05,0002.11
2022-05-29 07:39:00,,0812.4,5.01,0.00,29.1,28.1,00.0,38.1,31.0,12.3,0000.0,0013.60,0004.03,0002.10
2022-05-29 07:40:00,,0812.3,4.99,0.00,29.1,28.1,00.0,38.1,30.9,12.2,0000.0,0012.40,0004.02,0002.09
2022-05-29 07:41:00,,0812.2,5.01,0.00,29.1,28.1,00.0,38.1,30.9,12.3,0000.0,0012.43,0004.03,0002.08
2022-05-29 07:42:00,,0812.2,5.00,0.00,29.1,28.1,00.0,38.1,30.9,12.2,0000.0,0012.41,0004.08,0002.07
2022-05-29 07:43:00,,0812.3,5.00,0.00,29.2,28.1,00.0,38.1,30.9,12.3,0000.0,0012.22,0004.15,0002.07
2022-05-29 07:44:00,,0812.2,4.99,0.00,29.1,28.1,00.0,38.1,30.9,12.3,0000.0,0012.88,0004.24,0002.08
2022-05-29 07:45:00,,0812.2,4.99,0.00,29.1,28.1,00.0,38.1,30.9,12.4,0000.0,0012.86,0004.23,0002.07
2022-05-29 07:46:00,,0812.2,5.01,0.00,29.1,28.1,00.0,38.1,30.9,12.4,0000.0,0012.83,0004.22,0002.06
2022-05-29 07:47:00,,0812.2,5.00,0.00,29.1,28.1,00.0,38.1,30.9,12.2,0000.0,0013.20,0004.25,0002.04
2022-05-29 07:48:00,,0812.2,5.00,0.00,29.1,28.1,00.0,38.1,30.9,12.1,0000.0,0014.15,0004.25,0002.05
2022-05-29 07:49:00,,0812.1,4.99,0.00,29.1,28.1,00.0,38.1,30.9,12.3,0000.0,0013.81,0004.24,0002.06
2022-05-29 07:50:00,,0812.1,4.99,0.00,29.1,28.1,00.0,38.1,30.9,12.4,0000.0,0013.84,0004.34,0002.07
2022-05-29 07:51:00,,0812.1,5.00,0.00,29.1,28.1,00.0,38.1,30.9,12.2,0000.0,0014.44,0004.38,0002.09
2022-05-29 07:52:00,,0812.2,5.00,0.00,29.1,28.1,00.0,38.1,30.9,12.1,0000.0,0014.19,0004.41,0002.11
2022-05-29 07:53:00,,0812.2,5.01,0.00,29.1,28.1,00.0,38.1,30.9,12.1,0000.0,0014.33,0004.40,0002.10
2022-05-29 07:54:00,,0812.2,4.99,0.00,29.1,28.1,00.0,38.1,30.9,12.4,0000.0,0014.42,0004.43,0002.11
2022-05-29 07:55:00,,0812.2,5.00,0.00,29.1,28.1,00.0,38.1,30.9,12.2,0000.0,0014.35,0004.43,0002.12
2022-05-29 07:56:00,,0812.2,5.01,0.00,29.1,28.1,00.0,38.1,30.9,12.1,0000.0,0014.70,0004.44,0002.13
2022-05-29 07:57:00,,0812.2,4.99,0.00,29.1,28.1,00.0,38.1,30.9,12.3,0000.0,0014.78,0004.44,0002.13
2022-05-29 07:58:00,,0812.2,4.99,0.00,29.1,28.1,00.0,38.1,30.9,12.4,0000.0,0014.23,0004.42,0002.15
2022-05-29 07:59:00,,0812.2,5.01,0.00,29.1,28.1,00.0,38.1,30.9,12.3,0000.0,0013.45,0004.40,0002.13
